IST,Max TemperatureF,Mean TemperatureF,Min TemperatureF,Max Dew PointF,MeanDew PointF,Min DewpointF,Max Humidity, Mean Humidity, Min Humidity, Max Sea Level PressureIn, Mean Sea Level PressureIn, Min Sea Level PressureIn, Max VisibilityMiles, Mean VisibilityMiles, Min VisibilityMiles, Max Wind SpeedMPH, Mean Wind SpeedMPH, Max Gust SpeedMPH,PrecipitationIn, CloudCover, Events, WindDirDegrees
2013-8-1,81,78,76,79,77,75,100,91,80,29.62,29.55,29.50,2,1,1,16,11,26,2.99,7,Rain,252
2013-8-2,82,77,72,77,76,73,100,89,78,29.66,29.57,29.50,2,1,1,21,13,32,0.35,8,Rain,242
2013-8-3,87,82,76,77,76,73,89,83,65,29.74,29.65,29.62,2,2,1,17,11,29,0.16,6,,227
2013-8-4,86,80,73,77,76,73,94,83,65,29.75,29.70,29.65,2,2,1,15,7,23,0.02,4,Rain,251
2013-8-5,86,80,75,77,76,75,89,81,67,29.75,29.71,29.65,3,2,1,17,10,20,0.00,5,Rain,244
2013-8-6,86,81,76,77,75,73,89,79,63,29.77,29.71,29.65,3,2,1,15,11,22,0.08,5,Rain,252
2013-8-7,85,79,73,77,76,73,94,86,71,29.78,29.74,29.68,2,2,1,15,9,22,0.28,5,Rain,250
2013-8-8,84,80,75,77,76,72,94,85,73,29.80,29.75,29.71,3,2,1,15,8,22,0.20,5,Rain,238
2013-8-9,84,79,74,77,76,73,89,83,69,29.80,29.74,29.71,2,2,1,15,11,26,0.03,6,Rain,244
2013-8-10,85,80,75,77,76,73,94,82,69,29.77,29.72,29.68,3,2,1,17,11,29,0.04,6,Rain,240
2013-8-11,86,81,76,78,76,73,89,81,65,29.77,29.74,29.71,3,2,1,14,10,22,0.31,6,Rain,243
2013-8-12,86,80,74,77,75,73,94,83,65,29.77,29.72,29.68,3,2,1,15,10,25,0.16,7,Rain,258
2013-8-13,83,78,73,77,76,73,100,86,77,29.71,29.65,29.59,2,2,1,15,10,24,0.12,7,Rain,250
2013-8-14,84,79,74,79,76,73,94,86,73,29.74,29.66,29.62,2,2,1,14,10,24,0.39,7,Rain,235
2013-8-15,86,80,74,79,76,75,89,84,67,29.75,29.70,29.65,2,2,1,17,10,25,0.12,6,Rain,231
2013-8-16,86,80,75,78,76,73,94,83,69,29.75,29.69,29.62,3,2,1,16,9,23,0.24,6,Rain,222
2013-8-17,86,80,74,79,77,75,94,88,71,29.74,29.67,29.62,2,2,1,16,8,24,0.20,6,Rain,230
2013-8-18,85,80,74,77,76,72,94,83,69,29.75,29.70,29.65,2,2,1,17,8,24,0.12,6,Rain,250
2013-8-19,87,80,74,77,75,73,89,78,63,29.77,29.73,29.68,3,2,1,16,9,28,0.03,5,Rain,252
2013-8-20,87,82,76,77,75,73,89,78,63,29.76,29.72,29.68,4,2,1,16,12,28,0.00,5,,261
2013-8-21,88,82,77,76,75,73,84,76,57,29.74,29.70,29.65,3,2,1,17,11,25,0.00,5,Rain,263
2013-8-22,87,84,80,77,75,73,84,76,56,29.75,29.71,29.68,3,2,1,16,10,23,0.00,6,,271
2013-8-23,86,82,77,77,75,72,93,79,65,29.75,29.71,29.65,2,2,1,16,11,25,0.31,6,Rain,267
2013-8-24,84,81,78,77,76,75,91,84,72,29.73,29.69,29.65,2,2,1,15,11,23,0.12,6,Rain,272
2013-8-25,82,78,75,77,75,72,94,82,70,29.75,29.70,29.65,2,2,1,15,10,26,0.28,6,Rain,255
2013-8-26,82,78,74,78,76,73,94,87,76,29.76,29.71,29.68,2,2,1,13,5,23,0.16,6,Rain,228
2013-8-27,88,83,78,77,75,72,89,80,59,29.77,29.73,29.68,3,2,1,15,8,24,0.00,5,,235
2013-8-28,87,83,79,77,75,73,89,79,64,29.84,29.77,29.71,3,2,1,18,8,20,0.08,4,Rain,236
2013-8-29,88,83,78,78,75,72,89,78,62,29.86,29.81,29.77,6,3,1,15,7,23,0.00,3,Rain,234
2013-8-30,87,82,76,78,75,73,89,79,65,29.86,29.80,29.76,3,2,1,15,9,23,0.04,4,Rain,248
2013-8-31,86,82,77,77,75,73,94,80,61,29.86,29.78,29.74,2,2,1,12,6,21,0.04,4,Rain,237